Zurück zum Katalog

FENGYUN 1C DEB

AktivSSO
NORAD 31901·DEBRIS·🇨🇳 China

Gestartet May 10, 1999 von Taiyuan Satellite Launch Center

Loading…

Nächste Überflüge (nächste 24 Stunden)

TLE

AktuellSource: Space-Track

Epoche: Sep 14, 2026, 03:31 UTC

1 31901U 99025CLC 26257.14663471  .00000357  00000-0  27722-3 0  9991
2 31901  98.6335 205.0527 0131812 147.1142 213.8308 13.94275842672451

Verfolge FENGYUN 1C DEB in Echtzeit mit AllMySat

Download on the App Store